Wind_Speed
6 4 3 4 4 5 3 7 3 5 2 2 1 5 9 4 2 4 18 18 35 37 33 30 28 27 27 25 25 24 23 24 23 20 18 19 20 21 22 18 18 19 17 17 18 18 18 18 20
6 6 3 2 5 4 6 5 8 9 4 6 7 4 6 3 4 9 15 23 37 37 34 30 28 28 27 26 26 25 22 24 23 22 20 19 19 19 19 18 18 20 20 21 20 20 20 19 19
9 3 4 5 4 6 6 6 13 6 6 4 5 4 5 6 7 14 16 34 39 36 33 30 29 28 27 27 25 25 24 23 24 23 24 22 20 19 19 16 17 19 18 22 20 20 22 23 19
5 3 4 4 7 7 6 3 6 5 2 3 5 8 3 2 14 16 35 36 39 35 33 29 29 29 28 27 25 24 24 24 22 24 23 22 20 19 19 16 21 18 19 20 18 22 23 20 20
3 3 3 2 7 6 6 6 2 3 6 4 3 3 3 3 18 34 35 36 37 34 33 30 29 29 27 26 25 24 24 23 23 24 22 21 19 19 20 18 21 18 17 17 17 21 20 20 22
3 3 2 5 6 4 6 9 4 4 5 5 6 5 3 19 34 34 34 34 35 35 34 30 28 27 26 25 24 24 22 22 23 23 21 20 17 21 21 19 19 19 18 17 15 20 20 21 21
5 4 5 4 4 4 8 6 7 8 7 5 11 5 5 7 28 37 33 31 34 33 32 30 28 27 26 25 24 23 21 21 22 23 21 18 16 21 22 19 19 19 17 18 16 14 18 19 16
5 4 3 6 6 6 5 6 7 8 7 5 6 7 8 8 31 37 33 31 33 32 31 30 27 26 26 24 24 22 20 20 21 24 22 18 14 16 22 20 18 16 15 15 15 12 21 18 15
5 2 4 5 8 6 5 7 5 1 7 2 3 6 16 26 34 33 31 29 32 31 31 29 27 26 25 25 23 21 20 21 22 23 20 19 14 15 22 21 20 16 15 17 14 18 21 19 16
5 5 9 7 5 3 3 4 9 6 5 3 5 7 22 28 30 26 26 24 26 30 31 30 28 27 26 25 24 22 21 23 24 24 21 17 12 12 22 22 21 17 16 16 16 18 18 19 14
8 8 8 5 8 3 5 4 3 10 4 7 12 20 13 19 20 20 23 27 27 32 31 30 28 26 26 26 25 23 22 24 24 23 21 17 14 17 19 22 22 17 16 18 15 17 17 18 12
4 15 6 7 4 3 3 5 3 2 6 10 16 23 12 14 14 19 21 27 31 30 32 31 28 27 26 25 25 24 25 25 25 24 22 19 18 17 18 19 23 20 17 17 14 19 19 17 10
10 4 15 8 6 6 6 5 1 2 3 11 12 19 17 13 10 18 28 31 31 29 29 31 29 29 28 26 25 25 25 26 25 25 22 21 18 17 16 16 20 21 20 18 20 25 18 14 13
5 19 5 10 18 5 5 5 1 4 4 11 17 13 14 14 13 16 24 28 30 26 28 27 28 27 29 28 28 28 27 26 25 25 25 21 19 17 15 16 18 21 22 21 23 21 15 11 12
18 10 19 21 6 6 7 8 7 4 8 14 13 15 12 12 18 19 27 30 28 26 26 28 26 25 26 27 28 28 27 28 27 26 26 24 22 18 16 16 18 21 23 22 22 20 14 14 13
10 5 9 7 18 7 11 9 7 9 8 11 10 7 10 8 14 23 23 27 29 27 27 25 25 23 22 25 26 26 26 27 27 26 26 26 25 22 18 18 20 20 22 23 22 17 12 20 15
8 13 21 3 17 7 14 5 8 7 9 8 10 9 8 7 9 8 15 20 23 28 27 26 25 23 23 23 24 24 25 26 26 26 27 28 27 26 22 21 20 21 23 22 23 18 16 20 19
9 14 8 17 8 6 8 6 3 8 9 11 9 13 9 10 8 14 17 15 17 20 24 25 24 24 22 20 22 22 23 25 25 26 27 30 29 29 26 24 23 24 26 22 23 20 19 20 20
3 4 13 5 7 12 20 16 8 3 12 10 8 10 11 11 7 16 19 16 16 14 14 16 19 23 23 22 21 22 22 23 24 23 24 27 30 31 28 24 26 27 27 25 26 20 21 21 20
19 5 6 2 7 9 9 11 4 5 3 6 14 10 9 7 8 12 18 19 18 14 9 6 9 16 22 25 25 25 24 24 24 25 25 24 29 29 30 29 28 31 28 26 25 26 23 20 26
23 24 4 5 4 2 9 2 7 7 13 14 13 11 9 8 8 8 14 19 16 16 12 7 2 7 14 20 22 23 24 25 26 27 27 25 24 27 31 30 32 31 32 30 27 29 27 22 26
25 25 14 7 10 11 7 5 5 8 11 11 10 9 8 8 8 8 12 17 18 15 10 7 5 2 7 14 21 27 26 23 28 30 30 28 26 26 29 32 33 32 32 29 30 31 30 28 26
7 15 20 12 5 5 3 5 2 11 7 8 7 9 8 7 8 9 11 15 17 15 13 9 7 5 2 7 17 25 28 28 24 26 27 28 30 30 29 31 33 33 31 30 32 31 31 31 29
8 7 19 15 8 8 9 6 4 8 7 7 7 9 8 7 8 9 15 17 20 19 16 12 10 8 7 6 10 23 29 30 26 23 24 28 28 32 34 33 34 33 33 33 32 32 34 33 30
7 7 8 13 14 11 15 5 3 6 12 11 11 8 7 7 10 11 12 16 20 23 21 16 13 10 10 9 7 15 28 30 30 27 25 26 31 31 35 35 35 34 32 32 31 34 34 33 35
5 12 5 11 9 21 12 9 6 9 11 11 10 10 11 12 10 11 14 16 17 21 22 20 17 13 11 10 8 7 20 29 31 30 27 27 26 35 35 35 37 33 33 33 31 31 33 33 37
5 4 10 2 2 12 7 5 9 10 10 11 12 12 12 11 11 11 16 18 19 20 21 19 19 16 13 12 9 5 3 21 28 28 27 25 28 31 34 34 33 35 34 31 31 31 31 33 34
4 5 1 6 9 6 4 5 9 11 10 11 11 10 10 10 12 11 15 17 19 19 19 18 19 18 17 13 11 8 6 7 12 15 19 25 29 30 30 30 33 34 34 32 31 32 32 33 31
6 5 5 3 2 6 6 2 5 10 10 10 11 11 10 10 10 10 15 18 19 20 20 19 20 20 20 18 14 11 9 8 10 15 18 21 25 32 31 31 32 30 31 32 31 31 33 33 33
7 8 3 2 5 4 4 4 5 9 8 11 10 11 9 10 10 11 15 18 20 21 21 20 20 20 21 20 17 13 10 9 12 17 16 14 20 24 29 28 29 26 29 30 31 31 31 32 32
Wind_Direction
245 213 141 62 84 68 242 249 257 283 218 212 112 149 128 65 135 194 146 156 160 158 163 161 159 155 146 147 137 137 130 130 126 121 117 117 114 108 105 103 104 101 103 102 101 100 101 104 100
194 144 73 83 102 126 253 233 237 225 235 147 101 103 65 91 91 126 126 162 161 158 161 162 161 158 153 150 145 144 133 134 132 127 123 123 118 113 109 107 113 103 108 106 101 99 99 102 107
151 128 93 126 138 189 214 216 233 238 246 249 102 66 112 129 108 138 154 153 157 157 163 162 162 160 155 153 150 147 139 138 137 129 126 124 119 116 114 115 113 103 111 101 101 99 98 101 105
159 49 29 118 213 248 209 205 244 170 236 224 109 77 62 244 143 152 152 154 155 159 162 159 160 160 157 155 153 150 142 141 142 130 124 123 123 122 118 123 112 111 108 104 103 109 104 102 109
100 69 109 206 245 256 250 293 354 163 171 143 140 153 71 77 136 146 152 155 154 158 161 158 159 160 158 157 153 151 145 142 147 138 127 124 124 126 125 127 116 115 118 107 108 114 107 103 111
74 111 113 206 238 250 271 241 227 252 164 155 92 98 148 134 136 149 155 157 161 158 160 161 161 161 159 158 155 152 147 147 152 143 135 125 118 133 131 131 126 121 125 117 115 123 114 108 103
137 114 202 207 252 266 235 217 189 205 157 178 151 104 143 142 148 153 153 154 160 159 160 163 162 162 160 159 157 154 152 151 154 148 141 129 116 142 136 132 129 128 127 126 121 129 122 117 109
134 110 209 225 199 258 239 188 180 180 205 103 153 163 175 173 147 156 152 153 158 162 163 163 163 163 162 161 160 157 155 152 153 152 148 137 126 139 145 142 132 134 131 140 127 132 129 121 114
136 109 216 228 171 232 238 187 173 231 120 88 109 140 158 149 142 138 144 147 155 162 166 166 166 168 166 164 163 161 159 157 154 155 153 146 136 134 152 146 140 138 143 135 133 133 131 131 114
158 175 214 211 219 232 294 211 161 136 125 56 82 96 143 142 145 144 145 152 155 162 169 169 168 168 168 169 168 167 163 163 161 160 159 153 145 141 153 151 146 144 154 140 133 148 143 146 121
191 204 202 235 234 268 279 209 217 149 193 186 153 145 147 140 145 142 149 158 163 168 171 174 173 172 172 171 172 173 172 169 167 166 162 157 148 147 150 152 153 152 155 146 150 150 156 153 128
189 238 189 217 221 269 246 308 185 205 190 162 160 152 148 149 153 152 149 158 161 165 173 177 178 178 179 176 176 175 174 173 171 171 169 167 154 155 157 158 161 161 160 150 156 157 157 156 142
208 251 218 231 226 281 327 301 195 206 141 129 143 151 153 150 146 155 154 160 163 170 175 180 182 185 185 184 181 180 179 180 180 177 176 179 170 167 166 168 169 168 165 157 148 153 157 150 161
212 229 232 228 242 260 227 256 231 203 127 132 151 153 155 150 152 148 161 165 168 163 177 182 185 186 187 188 187 186 188 188 187 185 185 188 186 177 173 174 173 176 171 163 160 160 156 167 157
222 217 233 242 202 215 163 246 201 203 148 161 170 163 161 164 157 165 171 174 178 182 172 180 185 191 196 191 192 193 191 193 194 194 195 195 195 186 180 178 174 176 173 169 171 178 187 170 162
189 209 228 223 210 219 169 227 220 188 148 163 162 159 160 159 171 176 177 183 187 185 181 177 185 191 193 196 196 196 197 196 200 200 197 201 200 197 191 189 180 173 174 176 178 182 181 171 175
201 216 216 269 193 172 188 191 211 178 160 169 158 151 151 103 65 100 171 168 177 192 185 184 184 185 188 192 195 200 202 202 204 205 204 203 206 200 200 195 189 182 183 183 186 188 187 178 182
197 205 214 209 189 155 178 180 189 173 170 173 169 153 118 105 64 67 93 117 162 169 180 188 191 196 192 186 190 196 203 208 209 211 211 206 205 204 205 203 192 189 190 193 198 196 189 182 175
189 201 211 243 215 175 197 191 194 176 186 174 160 120 115 92 69 61 74 87 106 126 164 188 196 197 199 194 190 189 187 202 210 209 210 212 209 205 205 209 200 197 194 198 194 195 190 179 182
239 245 226 237 201 184 181 197 106 38 55 138 131 116 105 97 65 50 54 64 67 68 79 129 190 209 207 210 211 212 206 202 209 209 208 209 213 212 214 208 205 202 199 199 200 197 185 182 182
229 225 171 180 180 49 117 133 158 62 81 81 69 81 70 74 69 50 48 46 49 46 43 45 37 221 221 223 217 215 220 223 214 207 206 209 213 217 217 215 205 201 206 200 204 201 198 185 187
223 220 196 192 185 206 163 199 152 138 92 71 72 66 67 67 60 52 45 41 38 29 27 29 22 347 232 230 229 220 217 215 224 222 218 216 216 221 222 217 211 207 205 217 211 208 206 201 188
253 211 210 211 181 120 228 116 176 137 125 108 89 82 68 60 65 59 53 52 43 35 28 22 11 2 326 242 235 230 223 226 227 226 224 216 218 222 222 221 215 213 216 218 213 213 212 211 204
285 236 199 199 210 219 204 147 208 182 155 119 92 76 72 65 61 58 54 50 41 37 34 27 14 5 344 314 247 236 229 226 225 221 220 217 218 223 225 225 225 224 220 219 222 224 216 216 220
270 168 182 197 207 215 188 168 70 34 88 101 99 78 58 51 54 47 40 37 35 31 28 24 18 13 358 340 297 241 236 233 230 227 222 213 214 219 224 224 228 222 228 228 227 225 221 224 223
295 223 211 211 188 196 170 167 146 92 79 78 73 68 57 51 46 41 33 32 30 30 27 22 18 17 3 352 340 268 240 237 233 231 229 222 216 221 224 227 230 228 229 228 230 230 228 233 226
332 234 322 190 308 175 114 74 87 98 77 67 62 56 48 38 33 30 25 23 19 25 24 20 17 19 10 357 342 359 240 242 236 232 235 237 234 231 226 226 230 228 229 229 229 223 229 232 236
1 356 330 219 182 131 83 117 141 145 106 81 65 56 44 37 31 25 21 16 16 17 16 16 17 15 10 1 351 334 310 252 237 226 233 235 234 228 226 226 228 231 226 230 230 228 231 232 235
354 9 333 243 279 198 130 93 40 103 100 84 77 63 47 38 28 20 15 12 13 12 9 7 12 10 9 4 350 336 318 285 246 245 246 243 242 231 228 224 224 229 231 231 231 229 230 230 236
91 356 259 301 2 34 43 91 16 88 88 75 62 63 57 42 29 20 14 9 9 6 3 1 3 5 7 356 353 347 336 319 259 237 228 228 230 232 225 220 221 226 229 229 230 228 228 229 231
Height
783 783 784 785 812 822 820 804 781 780 769 757 754 761 769 771 774 793 775 780 785 791 798 803 806 810 812 815 818 821 822 825 828 830 832 833 835 835 837 839 839 841 842 842 843 844 845 846 847
782 784 785 796 821 828 818 794 781 774 760 758 758 763 767 777 769 774 777 781 785 791 798 802 807 810 813 816 818 821 824 826 829 831 833 835 837 838 839 841 842 843 844 845 846 847 848 849 850
782 784 791 804 821 821 809 782 772 763 757 758 759 760 765 773 771 773 775 781 786 792 798 802 806 810 813 817 819 822 825 828 830 832 834 837 839 841 842 843 843 845 846 848 849 850 850 852 853
782 785 794 807 811 796 783 768 766 762 756 754 758 770 763 763 765 770 776 781 786 792 798 802 806 810 814 817 820 823 825 829 831 833 836 838 840 842 844 845 846 848 849 850 852 853 854 855 855
780 789 805 807 801 787 774 765 760 759 757 755 755 772 769 765 766 770 778 783 786 792 798 803 807 811 814 817 820 824 826 829 832 835 837 840 842 844 846 847 849 851 852 854 855 856 857 858 859
786 790 809 809 796 779 770 763 760 762 755 757 763 769 771 767 767 773 778 784 788 793 799 803 807 811 815 818 821 825 827 830 833 836 838 840 842 844 847 849 851 853 855 856 858 859 861 861 862
786 795 799 795 788 779 769 758 762 760 756 757 754 772 769 769 770 774 779 784 790 795 800 804 808 812 815 819 822 825 828 831 834 837 839 841 843 845 848 851 853 855 857 858 860 862 864 864 865
781 789 789 786 785 778 757 754 747 753 755 748 749 771 774 766 771 775 780 785 791 796 800 804 808 812 815 819 823 826 829 832 835 838 840 842 845 846 849 852 855 857 859 860 861 863 865 868 868
774 792 796 780 781 766 751 754 746 742 747 748 750 754 758 765 770 775 781 787 791 796 800 804 808 812 815 819 823 827 830 833 836 839 841 843 845 848 850 853 855 858 860 862 863 865 867 869 870
776 792 780 766 760 754 749 747 745 747 751 754 754 753 758 764 767 773 778 785 790 794 799 803 807 811 815 819 823 827 830 833 836 839 842 844 846 848 851 854 856 859 861 863 865 867 869 871 872
769 773 762 757 754 751 749 745 743 748 755 752 753 753 759 763 768 771 777 781 785 791 797 802 806 810 814 818 822 826 829 833 837 840 842 845 847 849 852 854 857 859 862 864 866 868 870 872 874
766 754 753 752 750 748 748 744 745 743 742 740 743 746 756 763 767 769 775 781 785 791 795 800 805 809 813 817 821 825 828 832 836 839 842 844 847 849 852 854 857 859 862 864 867 869 872 873 875
759 752 750 749 750 751 748 748 746 744 741 741 746 749 755 762 767 771 775 780 785 790 794 798 803 807 812 816 820 824 827 831 835 838 841 844 846 849 852 855 857 859 862 865 867 870 872 874 876
747 748 748 747 750 752 753 750 747 744 743 746 748 753 755 760 765 772 776 780 784 789 793 798 802 806 810 814 818 822 826 830 834 837 840 843 846 849 852 855 857 860 862 865 868 871 873 874 877
746 753 747 742 749 751 751 758 755 743 745 749 751 753 757 761 766 770 774 778 783 789 793 797 801 806 809 813 817 820 824 828 831 835 839 842 845 848 851 854 857 859 862 865 868 871 873 875 877
748 754 754 732 741 746 749 757 749 743 747 752 755 759 761 763 765 769 774 778 783 788 792 797 801 805 808 812 816 819 822 826 829 834 837 841 844 847 850 853 856 859 862 865 867 870 872 875 877
746 736 738 734 727 740 744 751 744 743 746 753 754 759 762 768 771 773 776 778 782 787 791 796 799 803 807 811 814 818 821 824 828 832 835 839 842 846 848 851 854 858 862 865 867 869 872 874 876
731 737 737 734 732 738 744 745 736 742 745 751 755 758 766 772 778 777 777 779 782 786 790 794 798 802 806 809 813 816 819 823 826 829 833 836 839 843 846 848 852 856 860 864 867 869 870 873 876
719 727 731 730 725 727 729 736 737 740 743 751 758 766 771 776 781 780 779 779 781 786 789 793 796 800 803 806 810 813 816 820 824 827 831 834 837 841 844 847 851 854 857 860 864 867 870 871 874
724 730 731 728 723 726 735 738 741 747 751 752 760 770 777 782 783 783 783 783 784 786 788 791 795 798 801 804 807 811 815 817 821 824 827 831 834 838 842 845 848 852 855 859 862 864 867 869 871
715 719 733 729 727 729 740 751 745 761 763 767 775 779 783 786 788 788 787 787 787 787 789 792 794 796 799 802 805 808 812 815 818 821 824 828 831 835 838 842 845 847 852 855 858 861 864 865 869
711 709 721 727 731 736 729 761 757 763 774 780 787 790 792 791 791 791 791 790 790 791 792 792 794 795 797 799 802 803 806 809 812 817 822 825 828 831 835 838 841 844 848 851 854 858 860 863 866
710 706 712 724 736 741 735 759 755 770 780 790 795 795 797 796 796 796 796 796 795 794 793 793 794 795 796 797 799 801 804 807 810 813 817 821 825 829 831 834 836 841 844 847 850 854 857 860 863
721 714 711 721 733 733 732 740 775 766 775 795 799 799 800 800 799 799 799 798 798 796 795 795 794 795 795 796 797 799 800 803 807 810 814 817 821 824 827 830 833 836 839 842 846 850 853 856 859
720 710 700 706 717 709 717 742 795 797 790 797 802 805 805 804 803 803 803 802 801 799 798 797 796 795 795 795 795 797 798 800 803 807 810 814 817 819 821 825 828 831 835 838 842 845 849 852 855
739 705 680 679 686 695 711 740 798 804 803 805 806 808 808 809 809 809 808 807 805 803 802 800 798 796 796 795 794 794 797 798 800 803 806 809 812 814 817 821 824 827 832 834 836 840 844 847 851
748 725 735 698 699 686 770 806 804 806 810 811 812 813 814 814 813 812 811 810 808 806 805 804 801 798 797 796 794 793 795 797 797 799 802 805 808 810 813 816 820 822 826 829 832 835 838 842 846
780 775 726 699 691 704 776 788 798 808 813 816 819 820 821 820 818 818 817 815 812 810 808 806 803 800 798 796 795 793 793 794 796 796 798 801 803 805 808 811 815 818 821 825 828 831 833 836 840
800 800 795 772 735 674 771 806 811 813 818 821 823 826 826 825 825 823 822 820 816 813 810 808 804 801 799 797 795 793 792 791 792 793 795 796 798 799 802 806 809 813 816 820 823 825 828 831 834
807 815 810 774 748 776 776 827 824 824 825 827 829 829 831 831 830 828 827 824 819 815 812 809 806 803 799 798 796 793 790 789 789 790 792 793 793 795 797 800 804 808 812 815 818 821 823 825 828